Location: Hamlin Beach State Park
(43.3614°N, 77.9586°W)
Time: 17:25:56
(UTC-05:00)

Tiangong 1 - Visible Passes

Search period start: 24 November 2017 00:00
Search period end: 04 December 2017 00:00
Orbit: 283 x 307 km, 42.8° (Epoch: 24 November)

Date Brightness Start Highest point End Pass type
(mag) Time Alt. Az. Time Alt. Az. Time Alt. Az.
25 Nov 2.8 17:49:20 10° SSW 17:51:00 15° SSE 17:51:44 14° SE visible
26 Nov 2.0 17:54:54 10° SW 17:57:08 26° SSE 17:57:47 23° SE visible
27 Nov 1.3 18:00:43 10° WSW 18:03:12 41° SSE 18:03:41 36° SE visible
28 Nov 0.6 18:06:37 10° WSW 18:09:11 61° S 18:09:25 57° SE visible
29 Nov 0.5 18:12:28 10° W 18:15:01 76° S 18:15:01 76° S visible
30 Nov 0.9 18:18:13 10° W 18:20:30 63° WSW 18:20:30 63° WSW visible
01 Dec 1.5 18:23:50 10° W 18:25:53 48° WSW 18:25:53 48° WSW visible
02 Dec 2.1 18:29:21 10° W 18:31:11 36° WSW 18:31:11 36° WSW visible
03 Dec 2.7 18:34:46 10° W 18:36:28 27° SW 18:36:28 27° SW visible
